Regional Weather Roundup
Issued by NWS Jackson, KY

Home | Current Version | Previous Version | Graphics & Text | Print | Product List | Glossary On
Versions: 1 2 3 4 5 6 7 8 9 10 11 12 13 14 15 16 17 18 19 20 21 22 23 24 25 26 27
000
ASUS43 KJKL 251110
RWRJKL

EAST KENTUCKY HOURLY WEATHER ROUNDUP
NATIONAL WEATHER SERVICE JACKSON KY
700 AM EDT SUN SEP 25 2016

NOTE: "FAIR" INDICATES FEW OR NO CLOUDS BELOW 12,000 FEET WITH
NO SIGNIFICANT WEATHER AND/OR OBSTRUCTIONS TO VISIBILITY.

* THESE REPORTS ARE NOT UNDER NWS QUALITY CONTROL AND MAY NOT
  REPORT WEATHER SUCH AS PRECIPITATION AND FOG.

KYZ079-080-083-085-087-088-110-112-115-119-120-251200
...EASTERN KENTUCKY...

CITY           SKY/WX    TMP DP  RH WIND       PRES   REMARKS
JACKSON        CLEAR     66  63  90 NE3       30.14R
LONDON         CLEAR     64  61  90 CALM      30.13R FOG
SOMERSET*      CLEAR     63  63 100 CALM      30.13R FOG
MONTICELLO*    FOG       59  59 100 NE8       30.13S VSB 1/2
WILLIAMSBURG*  PTSUNNY   61  61 100 CALM      30.13R VSB<1/4
MIDDLESBORO*   FOG       62  62 100 CALM      30.15R VSB 1/2
HARLAN APT*    CLOUDY    63  61  94 CALM      30.16R VSB 1/2
PIKE CO APT*     N/A     65  65 100 CALM      30.15R FOG
MOREHEAD APT*  PTSUNNY   66  61  82 CALM      30.15S
ASHLAND*       CLEAR     63  57  82 CALM      30.13R
$$

KYZ035-036-041-042-044-050-067-078-099-251200
...CENTRAL KENTUCKY...

CITY           SKY/WX    TMP DP  RH WIND       PRES   REMARKS
MT STERLING*   CLEAR     64  63  94 E3        30.14F
FLEMING/MASON* CLEAR     62  59  91 E3        30.15S
DANVILLE*      CLEAR     63  61  94 CALM      30.13S FOG
LEXINGTON      CLEAR     68  63  84 E6        30.12S
FRANKFORT      CLEAR     68  62  81 E3        30.10S
LOUISVILLE     CLEAR     70  66  87 CALM      30.09S
LEBANON*         N/A     66  64  94 NE3       30.11S FOG
GLASGOW*       CLEAR    N/A N/A N/A CALM      30.10R FOG
BOWLING GREEN  CLEAR     65  64  97 CALM      30.09S FOG
$$

KYZ091>093-OHZ055-061-077-WVZ005-015-034-035-042-251200
...SOUTHERN OHIO/WEST VIRGINIA...

CITY           SKY/WX    TMP DP  RH WIND       PRES   REMARKS
COVINGTON      CLEAR     65  60  84 NE7       30.14R
COLUMBUS       CLEAR     56  51  84 NE3       30.16S
DAYTON         PTCLDY    57  53  86 E5        30.17S
WILMINGTON     CLEAR     56  54  93 E3        30.15S
HUNTINGTON     CLEAR     64  60  87 NE3       30.13S
CHARLESTON     FOG       62  61  96 CALM      30.14R VSB 1
PINEVILLE*       N/A     60  57  90 MISG      30.21S FOG
BECKLEY        CLEAR     59  58  96 CALM      30.19S FOG
BLUEFIELD      CLEAR     62  59  90 SE5       30.21S
LOGAN CO APT*    N/A     64  64 100 CALM      30.14S FOG
$$

VAZ002-007-008-TNZ017-027-036-066-071-251200
...SOUTHWEST VIRGINIA/EAST TENNESSEE...

CITY           SKY/WX    TMP DP  RH WIND       PRES   REMARKS
WISE*          CLEAR     66  61  82 CALM      30.21R
JONESVILLE*      N/A     59  57  94 CALM      30.16R
ABINGDON*      CLEAR     63  61  93 E5        30.17R
BRISTOL        CLEAR     60  59  96 CALM      30.14R
MORRISTOWN*    SUNNY     66  64  94 CALM      30.12R
SEVIERVILLE*   SUNNY     61  61 100 CALM      30.11R
KNOXVILLE      CLEAR     67  63  87 N3        30.10R
OAK RIDGE      CLEAR     67  64  90 CALM      30.12
CROSSVILLE     CLEAR     61  59  93 CALM      30.16R
NASHVILLE      CLEAR     66  63  90 S3        30.09R
$$

...KEY TO REMARKS...
VSB - VISIBILITY IN MILES
WCI - WIND CHILL INDEX
HX  - HEAT INDEX

$$




USA.gov is the U.S. government's official web portal to all federal, state and local government web resources and services.